FDX1583 KMEM-KABQ

Flight info

Callsign FDX1583
Flight time N/A
Altitude 30000
Route ZUMIT5 FOXOM FSM IRW J78 TCC KIIDD COLTR4
Aircraft A306/H-SDE3FGHIRWY/LB1

Departure

Time 2026-05-05 23:06
Airport Memphis International Airport (KMEM)

Arrival

Time N/A
Airport Albuquerque International Sunport (KABQ)
Time Latitude Longitude Altitude Speed Heading
2026-05-05 22:31 35.05992 -89.96809 271 ft 0 kts
2026-05-05 22:55 35.05981 -89.96809 271 ft 2 kts
2026-05-05 22:55 35.05966 -89.96810 271 ft 2 kts
2026-05-05 22:55 35.05957 -89.96811 271 ft 2 kts 357°
2026-05-05 22:56 35.05942 -89.96806 272 ft 2 kts 332°
2026-05-05 22:56 35.05931 -89.96796 272 ft 2 kts 311°
2026-05-05 22:56 35.05923 -89.96780 272 ft 2 kts 290°
2026-05-05 22:56 35.05920 -89.96766 272 ft 0 kts 272°
2026-05-05 22:57 35.05920 -89.96761 272 ft 0 kts 271°
2026-05-05 23:00 35.05920 -89.96775 272 ft 3 kts 271°
2026-05-05 23:00 35.05921 -89.96821 272 ft 7 kts 271°
2026-05-05 23:01 35.05923 -89.96901 271 ft 11 kts 272°
2026-05-05 23:01 35.05926 -89.97013 271 ft 14 kts 270°
2026-05-05 23:01 35.05928 -89.97125 271 ft 8 kts 270°
2026-05-05 23:01 35.05899 -89.97179 271 ft 8 kts 203°
2026-05-05 23:02 35.05841 -89.97185 271 ft 8 kts 180°
2026-05-05 23:02 35.05782 -89.97186 272 ft 8 kts 182°
2026-05-05 23:02 35.05722 -89.97190 273 ft 8 kts 182°
2026-05-05 23:02 35.05661 -89.97205 274 ft 9 kts 211°
2026-05-05 23:03 35.05611 -89.97277 275 ft 13 kts 234°
2026-05-05 23:03 35.05554 -89.97379 276 ft 15 kts 237°
2026-05-05 23:03 35.05500 -89.97476 277 ft 6 kts 236°
2026-05-05 23:03 35.05486 -89.97501 277 ft 0 kts 235°
2026-05-05 23:04 35.05486 -89.97502 277 ft 0 kts 235°
2026-05-05 23:04 35.05476 -89.97518 277 ft 4 kts 235°
2026-05-05 23:05 35.05444 -89.97570 278 ft 10 kts 232°
2026-05-05 23:05 35.05370 -89.97615 279 ft 13 kts 179°
2026-05-05 23:05 35.05253 -89.97611 282 ft 23 kts 179°
2026-05-05 23:05 35.04931 -89.97607 290 ft 77 kts 179°
2026-05-05 23:06 35.04159 -89.97590 306 ft 144 kts 179°
2026-05-05 23:06 35.03000 -89.97549 674 ft 173 kts 178°
2026-05-05 23:06 35.01830 -89.97442 1375 ft 175 kts 176°
2026-05-05 23:06 35.00592 -89.97290 1787 ft 191 kts 174°
2026-05-05 23:07 34.99120 -89.97117 1791 ft 227 kts 187°
2026-05-05 23:07 34.97657 -89.97932 2345 ft 240 kts 216°
2026-05-05 23:07 34.96382 -89.99104 3455 ft 230 kts 216°
2026-05-05 23:07 34.95102 -90.00191 4418 ft 224 kts 220°
2026-05-05 23:08 34.94260 -90.01765 5106 ft 233 kts 255°
2026-05-05 23:08 34.94134 -90.03747 5792 ft 244 kts 266°
2026-05-05 23:08 34.94134 -90.05836 6649 ft 248 kts 268°
2026-05-05 23:08 34.94136 -90.07898 7561 ft 248 kts 268°
2026-05-05 23:09 34.94265 -90.09952 8366 ft 252 kts 281°
2026-05-05 23:09 34.94858 -90.11974 9146 ft 257 kts 288°
2026-05-05 23:09 34.95580 -90.13953 9973 ft 257 kts 289°
2026-05-05 23:09 34.96334 -90.15946 10507 ft 268 kts 290°
2026-05-05 23:10 34.97155 -90.18076 10749 ft 288 kts 290°
2026-05-05 23:10 34.98004 -90.20393 10934 ft 309 kts 289°
2026-05-05 23:10 34.98869 -90.22869 11118 ft 330 kts 289°
2026-05-05 23:10 34.99789 -90.25514 11522 ft 344 kts 289°
2026-05-05 23:11 35.00725 -90.28203 12232 ft 348 kts 289°
2026-05-05 23:11 35.01665 -90.30909 13134 ft 346 kts 289°
2026-05-05 23:11 35.02597 -90.33555 13993 ft 345 kts 290°
2026-05-05 23:11 35.03602 -90.36231 14660 ft 349 kts 291°
2026-05-05 23:12 35.04636 -90.38934 15234 ft 355 kts 291°
2026-05-05 23:12 35.05690 -90.41647 15860 ft 359 kts 292°
2026-05-05 23:12 35.06766 -90.44420 16479 ft 362 kts 291°
2026-05-05 23:12 35.07833 -90.47160 17138 ft 364 kts 292°
2026-05-05 23:13 35.08913 -90.49972 17809 ft 365 kts 291°
2026-05-05 23:13 35.09988 -90.52747 18377 ft 368 kts 291°
2026-05-05 23:13 35.11086 -90.55602 18907 ft 370 kts 292°
2026-05-05 23:13 35.12174 -90.58450 19274 ft 377 kts 292°
2026-05-05 23:14 35.13291 -90.61340 19831 ft 379 kts 292°
2026-05-05 23:14 35.14407 -90.64234 20392 ft 380 kts 292°
2026-05-05 23:14 35.15541 -90.67181 20799 ft 385 kts 291°
2026-05-05 23:14 35.16696 -90.70170 21304 ft 388 kts 292°
2026-05-05 23:15 35.17761 -90.73171 21820 ft 387 kts 285°
2026-05-05 23:15 35.18208 -90.76418 22171 ft 391 kts 274°
2026-05-05 23:15 35.18285 -90.79745 22594 ft 395 kts 271°
2026-05-05 23:15 35.18274 -90.83102 23138 ft 396 kts 271°
2026-05-05 23:16 35.18283 -90.86468 23659 ft 398 kts 271°
2026-05-05 23:16 35.18325 -90.89849 24198 ft 399 kts 271°
2026-05-05 23:16 35.18373 -90.93226 24719 ft 400 kts 272°
2026-05-05 23:16 35.18426 -90.96613 25205 ft 402 kts 272°
2026-05-05 23:17 35.18494 -91.00018 25704 ft 403 kts 273°
2026-05-05 23:17 35.18667 -91.03427 26150 ft 405 kts 275°
2026-05-05 23:17 35.18914 -91.06831 26628 ft 405 kts 276°
2026-05-05 23:17 35.19179 -91.10231 27103 ft 406 kts 276°
2026-05-05 23:18 35.19447 -91.13662 27650 ft 405 kts 276°
2026-05-05 23:18 35.19708 -91.17073 28268 ft 401 kts 276°
2026-05-05 23:18 35.19963 -91.20437 28863 ft 398 kts 275°
2026-05-05 23:18 35.20216 -91.23782 29449 ft 393 kts 275°
2026-05-05 23:19 35.20464 -91.27058 29727 ft 394 kts 275°
2026-05-05 23:19 35.20710 -91.30404 29748 ft 396 kts 275°
2026-05-05 23:19 35.21197 -91.37099 29750 ft 397 kts 275°
2026-05-05 23:20 35.21681 -91.43806 29749 ft 396 kts 275°
2026-05-05 23:20 35.22177 -91.50536 29745 ft 396 kts 275°
2026-05-05 23:21 35.22666 -91.57227 29741 ft 395 kts 275°
2026-05-05 23:21 35.23134 -91.63953 29732 ft 396 kts 275°
2026-05-05 23:22 35.23607 -91.70670 29775 ft 397 kts 275°
2026-05-05 23:22 35.24082 -91.77319 29774 ft 396 kts 275°
2026-05-05 23:23 35.24559 -91.84033 29774 ft 394 kts 275°
2026-05-05 23:23 35.25015 -91.90734 29749 ft 397 kts 275°
2026-05-05 23:24 35.25485 -91.97389 29758 ft 395 kts 275°
2026-05-05 23:24 35.25941 -92.04076 29754 ft 395 kts 274°
2026-05-05 23:25 35.26379 -92.10713 29739 ft 394 kts 274°
2026-05-05 23:25 35.26811 -92.17385 29774 ft 393 kts 274°
2026-05-05 23:26 35.27258 -92.24062 29742 ft 392 kts 275°
2026-05-05 23:26 35.27703 -92.30696 29749 ft 390 kts 275°
2026-05-05 23:27 35.28138 -92.37275 29745 ft 392 kts 274°
2026-05-05 23:27 35.28575 -92.43909 29751 ft 391 kts 274°
2026-05-05 23:28 35.28986 -92.50549 29759 ft 390 kts 274°
2026-05-05 23:28 35.29401 -92.57122 29738 ft 392 kts 274°
2026-05-05 23:29 35.29824 -92.63754 29741 ft 390 kts 274°
2026-05-05 23:29 35.30228 -92.70408 29785 ft 392 kts 274°
2026-05-05 23:30 35.30641 -92.76994 29765 ft 392 kts 274°
2026-05-05 23:30 35.31062 -92.83608 29763 ft 389 kts 273°
2026-05-05 23:31 35.31467 -92.90235 29767 ft 390 kts 273°
2026-05-05 23:31 35.31849 -92.96808 29754 ft 389 kts 274°
2026-05-05 23:32 35.32260 -93.03410 29767 ft 387 kts 273°
2026-05-05 23:32 35.32634 -93.09958 29761 ft 389 kts 274°
2026-05-05 23:33 35.33031 -93.16551 29756 ft 389 kts 273°
2026-05-05 23:33 35.33420 -93.23156 29746 ft 389 kts 273°
2026-05-05 23:34 35.33789 -93.29741 29748 ft 388 kts 273°
2026-05-05 23:34 35.34159 -93.36315 29756 ft 388 kts 273°
2026-05-05 23:35 35.34531 -93.42887 29738 ft 387 kts 273°
2026-05-05 23:35 35.34904 -93.49468 29729 ft 389 kts 273°
2026-05-05 23:36 35.35269 -93.56052 29728 ft 387 kts 273°
2026-05-05 23:36 35.35635 -93.62640 29713 ft 388 kts 272°
2026-05-05 23:37 35.35989 -93.69192 29741 ft 387 kts 272°
2026-05-05 23:37 35.36331 -93.75771 29758 ft 387 kts 272°
2026-05-05 23:38 35.36693 -93.82299 29752 ft 386 kts 272°
2026-05-05 23:38 35.37043 -93.88886 29748 ft 388 kts 271°
2026-05-05 23:39 35.37362 -93.95435 29729 ft 388 kts 272°
2026-05-05 23:39 35.37714 -94.02023 29735 ft 386 kts 272°
2026-05-05 23:40 35.38053 -94.08579 29731 ft 387 kts 272°
2026-05-05 23:40 35.38400 -94.15120 29750 ft 387 kts 272°
2026-05-05 23:41 35.38712 -94.21669 29751 ft 385 kts 271°
2026-05-05 23:41 35.38928 -94.28249 29751 ft 386 kts 269°
2026-05-05 23:42 35.38893 -94.34789 29746 ft 387 kts 269°
2026-05-05 23:42 35.38911 -94.41356 29741 ft 386 kts 269°
2026-05-05 23:43 35.38929 -94.47923 29728 ft 385 kts 269°
2026-05-05 23:43 35.38947 -94.54442 29723 ft 385 kts 269°
2026-05-05 23:44 35.38972 -94.60996 29719 ft 384 kts 269°
2026-05-05 23:44 35.38985 -94.67548 29752 ft 384 kts 269°
2026-05-05 23:45 35.39011 -94.74042 29771 ft 385 kts 269°
2026-05-05 23:45 35.39001 -94.80557 29774 ft 383 kts 269°
2026-05-05 23:46 35.39010 -94.87087 29766 ft 383 kts 268°
2026-05-05 23:46 35.39005 -94.93604 29765 ft 384 kts 268°
2026-05-05 23:47 35.39009 -95.00069 29774 ft 381 kts 268°
2026-05-05 23:47 35.39001 -95.06581 29773 ft 383 kts 268°
2026-05-05 23:48 35.38992 -95.13080 29775 ft 381 kts 268°
2026-05-05 23:48 35.38965 -95.19566 29770 ft 383 kts 268°
2026-05-05 23:49 35.38961 -95.26099 29775 ft 384 kts 268°
2026-05-05 23:49 35.38942 -95.32621 29770 ft 384 kts 268°
2026-05-05 23:50 35.38907 -95.39135 29773 ft 384 kts 267°
2026-05-05 23:50 35.38907 -95.45674 29777 ft 385 kts 268°
2026-05-05 23:51 35.38862 -95.52203 29784 ft 385 kts 268°
2026-05-05 23:51 35.38818 -95.58731 29778 ft 386 kts 268°
2026-05-05 23:52 35.38786 -95.65288 29773 ft 385 kts 267°
2026-05-05 23:52 35.38730 -95.71831 29821 ft 384 kts 267°
2026-05-05 23:53 35.38698 -95.78354 29828 ft 386 kts 267°
2026-05-05 23:53 35.38643 -95.84907 29829 ft 386 kts 267°
2026-05-05 23:54 35.38602 -95.91490 29830 ft 384 kts 266°
2026-05-05 23:54 35.38537 -95.97989 29830 ft 387 kts 266°
2026-05-05 23:55 35.38485 -96.04131 29832 ft 388 kts 266°
2026-05-05 23:55 35.38411 -96.10720 29835 ft 386 kts 266°
2026-05-05 23:56 35.38350 -96.17309 29836 ft 387 kts 266°
2026-05-05 23:56 35.38278 -96.23846 29841 ft 387 kts 266°
2026-05-05 23:57 35.38202 -96.30408 29829 ft 386 kts 266°
2026-05-05 23:57 35.38132 -96.36995 29823 ft 386 kts 267°
2026-05-05 23:58 35.38044 -96.43515 29816 ft 386 kts 267°
2026-05-05 23:58 35.37968 -96.50056 29813 ft 386 kts 266°
2026-05-05 23:59 35.37880 -96.56648 29812 ft 385 kts 266°
2026-05-05 23:59 35.37790 -96.63187 29810 ft 384 kts 266°
2026-05-06 00:00 35.37686 -96.69682 29853 ft 385 kts 266°
2026-05-06 00:00 35.37591 -96.76260 29893 ft 384 kts 266°
2026-05-06 00:01 35.37494 -96.82754 29892 ft 384 kts 266°
2026-05-06 00:01 35.37378 -96.89305 29896 ft 384 kts 266°
2026-05-06 00:02 35.37281 -96.95801 29899 ft 384 kts 265°
2026-05-06 00:02 35.37177 -97.02353 29904 ft 385 kts 265°
2026-05-06 00:03 35.37052 -97.08843 29901 ft 382 kts 265°
2026-05-06 00:03 35.36938 -97.15365 29895 ft 383 kts 265°
2026-05-06 00:04 35.36804 -97.21898 29895 ft 384 kts 265°
2026-05-06 00:04 35.36682 -97.28433 29894 ft 385 kts 265°
2026-05-06 00:05 35.36485 -97.38242 29881 ft 384 kts 265°
2026-05-06 00:06 35.36349 -97.44744 29872 ft 386 kts 265°
2026-05-06 00:06 35.36213 -97.51311 29868 ft 385 kts 265°
2026-05-06 00:07 35.36068 -97.57838 29861 ft 387 kts 265°
2026-05-06 00:07 35.35852 -97.64433 29857 ft 387 kts 265°
2026-05-06 00:08 35.35721 -97.71020 29905 ft 389 kts 266°
2026-05-06 00:08 35.35628 -97.77597 29907 ft 388 kts 265°
2026-05-06 00:09 35.35541 -97.84193 29911 ft 389 kts 265°
2026-05-06 00:09 35.35444 -97.90792 29913 ft 388 kts 265°
2026-05-06 00:10 35.35338 -97.97424 29913 ft 388 kts 265°
2026-05-06 00:10 35.35233 -98.04004 29916 ft 389 kts 265°
2026-05-06 00:11 35.35120 -98.10628 29911 ft 390 kts 265°
2026-05-06 00:11 35.35003 -98.17226 29907 ft 389 kts 265°
2026-05-06 00:12 35.34887 -98.23817 29909 ft 390 kts 266°
2026-05-06 00:12 35.34768 -98.30401 29911 ft 387 kts 265°
2026-05-06 00:13 35.34646 -98.37022 29897 ft 388 kts 265°
2026-05-06 00:13 35.34515 -98.43613 29895 ft 387 kts 265°
2026-05-06 00:14 35.34390 -98.50191 29895 ft 388 kts 265°
2026-05-06 00:14 35.34247 -98.56780 29888 ft 387 kts 265°
2026-05-06 00:15 35.34114 -98.63316 29876 ft 386 kts 265°
2026-05-06 00:15 35.33968 -98.69904 29916 ft 386 kts 264°
2026-05-06 00:16 35.33826 -98.76453 29936 ft 387 kts 264°
2026-05-06 00:16 35.33677 -98.83026 29932 ft 385 kts 265°
2026-05-06 00:17 35.33497 -98.89545 29940 ft 384 kts 264°
2026-05-06 00:17 35.33316 -98.96094 29946 ft 385 kts 264°
2026-05-06 00:18 35.33149 -99.02599 29944 ft 384 kts 265°
2026-05-06 00:18 35.32998 -99.09127 29950 ft 386 kts 265°
2026-05-06 00:19 35.32828 -99.15662 29940 ft 384 kts 265°
2026-05-06 00:19 35.32659 -99.22176 29944 ft 383 kts 265°
2026-05-06 00:20 35.32484 -99.28725 29935 ft 384 kts 265°
2026-05-06 00:20 35.32315 -99.35216 29932 ft 385 kts 265°
2026-05-06 00:21 35.32136 -99.41760 29926 ft 384 kts 265°
2026-05-06 00:21 35.31949 -99.48310 29919 ft 386 kts 265°
2026-05-06 00:22 35.31760 -99.54829 29906 ft 385 kts 265°
2026-05-06 00:22 35.31570 -99.61395 29892 ft 385 kts 265°
2026-05-06 00:23 35.31369 -99.67937 29912 ft 386 kts 264°
2026-05-06 00:23 35.31174 -99.74463 29944 ft 385 kts 264°
2026-05-06 00:24 35.30976 -99.81027 29933 ft 385 kts 264°
2026-05-06 00:24 35.30771 -99.87563 29930 ft 384 kts 264°
2026-05-06 00:25 35.30563 -99.94070 29931 ft 384 kts 264°
2026-05-06 00:25 35.30345 -100.00650 29938 ft 387 kts 264°
2026-05-06 00:26 35.30129 -100.07146 29929 ft 384 kts 264°
2026-05-06 00:26 35.29911 -100.13683 29921 ft 386 kts 264°
2026-05-06 00:27 35.29688 -100.20205 29909 ft 383 kts 264°
2026-05-06 00:27 35.29462 -100.26733 29895 ft 386 kts 264°
2026-05-06 00:28 35.29237 -100.33247 29897 ft 385 kts 264°
2026-05-06 00:28 35.29004 -100.39771 29897 ft 385 kts 264°
2026-05-06 00:29 35.28771 -100.46286 29900 ft 386 kts 264°
2026-05-06 00:29 35.28532 -100.52870 29881 ft 386 kts 264°
2026-05-06 00:30 35.28280 -100.59398 29866 ft 386 kts 264°
2026-05-06 00:30 35.28030 -100.65929 29863 ft 386 kts 264°
2026-05-06 00:31 35.27778 -100.72488 29922 ft 385 kts 264°
2026-05-06 00:31 35.27531 -100.78993 29909 ft 384 kts 264°
2026-05-06 00:32 35.27269 -100.85571 29915 ft 386 kts 263°
2026-05-06 00:32 35.27019 -100.92109 29916 ft 385 kts 264°
2026-05-06 00:33 35.26739 -100.98615 29903 ft 387 kts 264°
2026-05-06 00:33 35.26479 -101.05203 29898 ft 387 kts 264°
2026-05-06 00:34 35.26203 -101.11722 29904 ft 384 kts 263°
2026-05-06 00:34 35.25928 -101.18278 29900 ft 386 kts 264°